User: anonymous
Location: Wildlife_Club
(35.6000°N, 81.4330°W)
Time: 15:17:50
(UTC-04:00)
Language:

Cosmos 1782 - Orbit

View from above orbital plane
View from above orbital plane
View from above satellite
View from above satellite

Ground track
Ground track

The orbit data is extracted from the following two-line orbital elements,

1 16986U 86074A   14205.11505125  .00000174  00000-0  10804-4 0  8030
2 16986 082.5062 069.5783 0011579 002.4457 357.6823 15.02945198511520
Epoch (UTC): 24 July 2014 02:45:40
Eccentricity: 0.0011579
inclination: 82.5062°
perigee height: 550 km
apogee height: 566 km
right ascension of ascending node: 69.5783°
argument of perigee: 2.4457°
revolutions per day: 15.02945198
mean anomaly at epoch: 357.6823°
orbit number at epoch: 51152

The dashed part of the orbit path shows where the satellite is in the earth's shadow,  

DLR